Time,TemperatureF,DewpointF,PressureIn,WindDirection,WindDirectionDegrees,WindSpeedMPH,WindSpeedGustMPH,Humidity,HourlyPrecipIn,Conditions,Clouds,dailyrainin,SoftwareType,DateUTC
2013-05-12 00:00:00,73.0,70.5,30.03,NNW,346,0.0,0.0,92,0.00,RA,OVC,0.00,WeatherDisplay:10.37,2013-05-12 04:00:00,
2013-05-12 00:01:00,73.0,70.5,30.03,NNW,346,0.0,0.0,92,0.00,RA,OVC,0.00,WeatherDisplay:10.37,2013-05-12 04:01:00,
2013-05-12 00:06:00,73.2,71.1,30.03,NNW,346,0.0,0.0,93,0.00,RA,OVC,0.00,WeatherDisplay:10.37,2013-05-12 04:06:00,
2013-05-12 00:11:00,73.2,70.7,30.03,NNW,346,0.0,0.0,92,0.00,,OVC,0.00,WeatherDisplay:10.37,2013-05-12 04:11:00,
2013-05-12 00:16:00,73.2,71.1,30.03,NNW,346,0.0,0.0,93,0.00,,OVC,0.00,WeatherDisplay:10.37,2013-05-12 04:16:00,
2013-05-12 00:21:00,73.2,71.1,30.03,NNW,346,0.0,0.0,93,0.00,,OVC,0.00,WeatherDisplay:10.37,2013-05-12 04:21:00,
2013-05-12 00:26:00,73.3,71.2,30.03,NNW,347,0.0,0.0,93,0.00,,OVC,0.00,WeatherDisplay:10.37,2013-05-12 04:26:00,
2013-05-12 00:31:00,73.2,71.1,30.03,NNW,347,0.0,0.0,93,0.00,,OVC,0.00,WeatherDisplay:10.37,2013-05-12 04:31:00,
2013-05-12 00:36:00,73.3,71.2,30.03,NNW,347,0.0,0.0,93,0.00,,OVC,0.00,WeatherDisplay:10.37,2013-05-12 04:36:00,
2013-05-12 00:41:00,73.3,71.2,30.03,NNW,347,0.0,0.0,93,0.00,,OVC,0.00,WeatherDisplay:10.37,2013-05-12 04:41:00,
2013-05-12 00:46:00,73.3,71.2,30.03,NNW,346,0.0,0.0,93,0.00,,OVC,0.00,WeatherDisplay:10.37,2013-05-12 04:46:00,
2013-05-12 00:51:00,73.3,71.2,30.03,NNW,346,0.0,0.0,93,0.00,,OVC,0.00,WeatherDisplay:10.37,2013-05-12 04:51:00,
2013-05-12 00:56:00,73.3,71.2,30.03,NNW,346,0.0,0.0,93,0.00,,OVC,0.00,WeatherDisplay:10.37,2013-05-12 04:56:00,
2013-05-12 01:01:00,73.2,71.1,30.02,NNW,346,0.0,0.0,93,0.00,,OVC,0.00,WeatherDisplay:10.37,2013-05-12 05:01:00,
2013-05-12 01:06:00,73.2,71.1,30.02,NNW,346,0.0,0.0,93,0.00,,OVC,0.00,WeatherDisplay:10.37,2013-05-12 05:06:00,
2013-05-12 01:11:00,73.2,71.1,30.02,NNW,346,0.0,0.0,93,0.00,,OVC,0.00,WeatherDisplay:10.37,2013-05-12 05:11:00,
2013-05-12 01:16:00,73.2,71.1,30.01,NNW,346,0.0,0.0,93,0.00,,OVC,0.00,WeatherDisplay:10.37,2013-05-12 05:16:00,
2013-05-12 01:21:00,73.0,70.9,30.01,NNW,346,0.0,0.0,93,0.00,,OVC,0.00,WeatherDisplay:10.37,2013-05-12 05:21:00,
2013-05-12 01:26:00,73.0,70.9,30.01,NNW,346,0.0,0.0,93,0.00,,OVC,0.00,WeatherDisplay:10.37,2013-05-12 05:26:00,
2013-05-12 01:31:00,73.2,71.1,30.01,NNW,346,0.0,0.0,93,0.00,,OVC,0.00,WeatherDisplay:10.37,2013-05-12 05:31:00,
2013-05-12 01:36:00,73.2,71.1,30.01,NNW,346,0.0,0.0,93,0.00,,OVC,0.00,WeatherDisplay:10.37,2013-05-12 05:36:00,
2013-05-12 01:41:00,73.2,71.4,30.01,NNW,346,0.0,0.0,94,0.00,,OVC,0.00,WeatherDisplay:10.37,2013-05-12 05:41:00,
2013-05-12 01:46:00,73.2,71.4,30.01,NNW,346,0.0,0.0,94,0.00,,OVC,0.00,WeatherDisplay:10.37,2013-05-12 05:46:00,
2013-05-12 01:51:00,73.2,71.4,30.01,NNW,346,0.0,0.0,94,0.00,,OVC,0.00,WeatherDisplay:10.37,2013-05-12 05:51:00,
2013-05-12 01:56:00,73.2,71.4,30.01,NNW,346,0.0,0.0,94,0.00,,OVC,0.00,WeatherDisplay:10.37,2013-05-12 05:56:00,
2013-05-12 02:01:00,73.2,71.4,30.00,NNW,346,0.0,0.0,94,0.00,,OVC,0.00,WeatherDisplay:10.37,2013-05-12 06:01:00,
2013-05-12 02:06:00,73.2,71.4,30.00,NNW,346,0.0,0.0,94,0.00,,OVC,0.00,WeatherDisplay:10.37,2013-05-12 06:06:00,
2013-05-12 02:11:00,73.0,71.2,30.00,NNW,346,0.0,0.0,94,0.00,,OVC,0.00,WeatherDisplay:10.37,2013-05-12 06:11:00,
2013-05-12 02:16:00,72.8,71.0,29.99,NNW,347,0.0,0.0,94,0.00,,OVC,0.00,WeatherDisplay:10.37,2013-05-12 06:16:00,
2013-05-12 02:21:00,72.8,71.0,29.99,NNW,347,0.0,0.0,94,0.00,,OVC,0.00,WeatherDisplay:10.37,2013-05-12 06:21:00,
2013-05-12 02:26:00,73.0,71.2,29.99,NNW,347,0.0,0.0,94,0.00,,OVC,0.00,WeatherDisplay:10.37,2013-05-12 06:26:00,
2013-05-12 02:31:00,73.0,71.2,29.98,NNW,348,0.0,0.0,94,0.00,,OVC,0.00,WeatherDisplay:10.37,2013-05-12 06:31:00,
2013-05-12 02:36:00,73.0,71.2,29.98,NNW,348,0.0,0.0,94,0.00,,OVC,0.00,WeatherDisplay:10.37,2013-05-12 06:36:00,
2013-05-12 02:41:00,73.0,71.2,29.98,NNW,348,0.0,0.0,94,0.00,,OVC,0.00,WeatherDisplay:10.37,2013-05-12 06:41:00,
2013-05-12 02:46:00,73.0,71.2,29.98,NNW,348,0.0,0.0,94,0.00,,OVC,0.00,WeatherDisplay:10.37,2013-05-12 06:46:00,
2013-05-12 02:51:00,73.0,71.2,29.98,NNW,348,0.0,0.0,94,0.00,,OVC,0.00,WeatherDisplay:10.37,2013-05-12 06:51:00,
2013-05-12 02:56:00,72.8,71.0,29.98,NNW,348,0.0,0.0,94,0.00,,OVC,0.00,WeatherDisplay:10.37,2013-05-12 06:56:00,
2013-05-12 03:01:00,73.0,71.2,29.98,NNW,348,0.0,0.0,94,0.00,,OVC,0.00,WeatherDisplay:10.37,2013-05-12 07:01:00,
2013-05-12 03:06:00,73.0,71.2,29.98,NNW,348,0.0,0.0,94,0.00,,OVC,0.00,WeatherDisplay:10.37,2013-05-12 07:06:00,
2013-05-12 03:11:00,73.0,71.2,29.98,NNW,348,0.0,0.0,94,0.00,,OVC,0.00,WeatherDisplay:10.37,2013-05-12 07:11:00,
2013-05-12 03:16:00,72.8,71.0,29.97,NNW,348,0.0,0.0,94,0.00,,OVC,0.00,WeatherDisplay:10.37,2013-05-12 07:16:00,
2013-05-12 03:21:00,72.7,70.9,29.97,NNW,348,0.0,0.0,94,0.00,,OVC,0.00,WeatherDisplay:10.37,2013-05-12 07:21:00,
2013-05-12 03:26:00,72.7,70.9,29.97,NNW,348,0.0,0.0,94,0.00,,OVC,0.00,WeatherDisplay:10.37,2013-05-12 07:26:00,
2013-05-12 03:31:00,72.5,70.7,29.97,NNW,348,0.0,0.0,94,0.00,,OVC,0.00,WeatherDisplay:10.37,2013-05-12 07:31:00,
2013-05-12 03:36:00,72.5,70.7,29.97,NNW,348,0.0,0.0,94,0.00,,OVC,0.00,WeatherDisplay:10.37,2013-05-12 07:36:00,
2013-05-12 03:41:00,72.3,70.5,29.97,NNW,348,0.0,0.0,94,0.00,,OVC,0.00,WeatherDisplay:10.37,2013-05-12 07:41:00,
2013-05-12 03:46:00,72.1,70.3,29.97,NNW,348,0.0,0.0,94,0.00,,OVC,0.00,WeatherDisplay:10.37,2013-05-12 07:46:00,
2013-05-12 03:51:00,72.1,70.3,29.97,NNW,348,0.0,0.0,94,0.00,,OVC,0.00,WeatherDisplay:10.37,2013-05-12 07:51:00,
2013-05-12 03:56:00,72.1,70.6,29.97,NNW,348,0.0,0.0,95,0.00,,OVC,0.00,WeatherDisplay:10.37,2013-05-12 07:56:00,
2013-05-12 04:01:00,72.1,70.6,29.96,NNW,348,0.0,0.0,95,0.00,,OVC,0.00,WeatherDisplay:10.37,2013-05-12 08:01:00,
2013-05-12 04:07:00,72.1,70.6,29.96,NNW,348,0.0,0.0,95,0.00,,OVC,0.00,WeatherDisplay:10.37,2013-05-12 08:07:00,
2013-05-12 04:12:00,72.0,70.5,29.96,NNW,348,0.0,0.0,95,0.00,,OVC,0.00,WeatherDisplay:10.37,2013-05-12 08:12:00,
2013-05-12 04:17:00,72.0,70.5,29.96,NNW,348,0.0,0.0,95,0.00,,OVC,0.00,WeatherDisplay:10.37,2013-05-12 08:17:00,
2013-05-12 04:22:00,71.8,70.3,29.96,NNW,348,0.0,0.0,95,0.00,,OVC,0.00,WeatherDisplay:10.37,2013-05-12 08:22:00,
2013-05-12 04:27:00,71.8,70.3,29.96,NNW,348,0.0,0.0,95,0.00,,OVC,0.00,WeatherDisplay:10.37,2013-05-12 08:27:00,
2013-05-12 04:32:00,71.8,70.3,29.95,NNW,348,0.0,0.0,95,0.00,,OVC,0.00,WeatherDisplay:10.37,2013-05-12 08:32:00,
2013-05-12 04:37:00,71.8,70.3,29.95,NNW,348,0.0,0.0,95,0.00,,OVC,0.00,WeatherDisplay:10.37,2013-05-12 08:37:00,
2013-05-12 04:42:00,71.8,70.3,29.95,NNW,348,0.0,0.0,95,0.00,,OVC,0.00,WeatherDisplay:10.37,2013-05-12 08:42:00,
2013-05-12 04:47:00,71.8,70.3,29.95,NNW,348,0.0,0.0,95,0.00,,OVC,0.00,WeatherDisplay:10.37,2013-05-12 08:47:00,
2013-05-12 04:52:00,71.6,70.1,29.95,NNW,348,0.0,0.0,95,0.00,,OVC,0.00,WeatherDisplay:10.37,2013-05-12 08:52:00,
2013-05-12 04:57:00,71.5,70.0,29.95,NNW,348,0.0,0.0,95,0.00,,OVC,0.00,WeatherDisplay:10.37,2013-05-12 08:57:00,
2013-05-12 05:02:00,71.5,70.0,29.96,NNW,348,0.0,0.0,95,0.00,,OVC,0.00,WeatherDisplay:10.37,2013-05-12 09:02:00,
2013-05-12 05:07:00,71.3,69.8,29.96,NNW,348,0.0,0.0,95,0.00,,OVC,0.00,WeatherDisplay:10.37,2013-05-12 09:07:00,
2013-05-12 05:12:00,71.3,69.8,29.96,NNW,348,0.0,0.0,95,0.00,,OVC,0.00,WeatherDisplay:10.37,2013-05-12 09:12:00,
2013-05-12 05:17:00,71.3,69.8,29.96,NNW,348,0.0,0.0,95,0.00,,OVC,0.00,WeatherDisplay:10.37,2013-05-12 09:17:00,
2013-05-12 05:22:00,71.3,69.8,29.96,NNW,348,0.0,0.0,95,0.00,,OVC,0.00,WeatherDisplay:10.37,2013-05-12 09:22:00,
2013-05-12 05:27:00,71.3,69.8,29.96,NNW,348,0.0,0.0,95,0.00,,OVC,0.00,WeatherDisplay:10.37,2013-05-12 09:27:00,
2013-05-12 05:32:00,71.3,69.8,29.95,NNW,348,0.0,0.0,95,0.00,,OVC,0.00,WeatherDisplay:10.37,2013-05-12 09:32:00,
2013-05-12 05:37:00,72.0,70.8,29.95,NNW,348,0.0,0.0,96,0.00,,OVC,0.00,WeatherDisplay:10.37,2013-05-12 09:37:00,
2013-05-12 05:42:00,72.3,71.1,29.95,NNW,348,0.0,0.0,96,0.00,,OVC,0.00,WeatherDisplay:10.37,2013-05-12 09:42:00,
2013-05-12 05:47:00,72.5,71.0,29.95,NNW,348,0.0,0.0,95,0.00,,OVC,0.00,WeatherDisplay:10.37,2013-05-12 09:47:00,
2013-05-12 05:52:00,72.5,71.0,29.95,NNW,348,0.0,0.0,95,0.00,,OVC,0.00,WeatherDisplay:10.37,2013-05-12 09:52:00,
2013-05-12 05:57:00,72.7,71.5,29.95,NNW,348,0.0,0.0,96,0.00,,OVC,0.00,WeatherDisplay:10.37,2013-05-12 09:57:00,
2013-05-12 06:02:00,73.0,71.8,29.94,North,349,0.0,0.0,96,0.00,,OVC,0.00,WeatherDisplay:10.37,2013-05-12 10:02:00,
2013-05-12 06:07:00,73.0,71.5,29.94,North,349,0.0,0.0,95,0.00,,OVC,0.00,WeatherDisplay:10.37,2013-05-12 10:07:00,
2013-05-12 06:12:00,73.2,72.0,29.94,NNE,26,0.0,0.0,96,0.00,,OVC,0.00,WeatherDisplay:10.37,2013-05-12 10:12:00,
2013-05-12 06:17:00,73.3,72.1,29.94,NE,45,0.0,0.0,96,0.00,,OVC,0.00,WeatherDisplay:10.37,2013-05-12 10:17:00,
2013-05-12 06:22:00,73.3,72.1,29.94,SE,136,0.0,0.0,96,0.00,,OVC,0.00,WeatherDisplay:10.37,2013-05-12 10:22:00,
2013-05-12 06:27:00,73.5,72.3,29.94,SE,145,0.0,0.0,96,0.00,,OVC,0.00,WeatherDisplay:10.37,2013-05-12 10:27:00,
2013-05-12 06:32:00,73.9,72.7,29.93,SSE,151,0.0,0.0,96,0.00,,OVC,0.00,WeatherDisplay:10.37,2013-05-12 10:32:00,
2013-05-12 06:37:00,74.0,72.8,29.93,ESE,107,10.4,0.0,96,0.00,,OVC,0.00,WeatherDisplay:10.37,2013-05-12 10:37:00,
2013-05-12 06:42:00,74.0,72.8,29.93,SE,138,0.0,0.0,96,0.00,,OVC,0.00,WeatherDisplay:10.37,2013-05-12 10:42:00,
2013-05-12 06:47:00,74.2,73.0,29.94,SE,142,0.0,0.0,96,0.00,,OVC,0.00,WeatherDisplay:10.37,2013-05-12 10:47:00,
2013-05-12 06:52:00,74.2,73.0,29.94,SE,142,0.0,0.0,96,0.00,,OVC,0.00,WeatherDisplay:10.37,2013-05-12 10:52:00,
2013-05-12 06:57:00,74.4,73.2,29.94,SE,142,0.0,0.0,96,0.00,,OVC,0.00,WeatherDisplay:10.37,2013-05-12 10:57:00,
2013-05-12 07:02:00,74.2,72.7,29.95,SE,142,0.0,0.0,95,0.00,,OVC,0.00,WeatherDisplay:10.37,2013-05-12 11:02:00,
2013-05-12 07:07:00,74.4,73.2,29.95,SE,142,0.0,0.0,96,0.00,,OVC,0.00,WeatherDisplay:10.37,2013-05-12 11:07:00,
2013-05-12 07:12:00,74.4,73.2,29.95,SE,142,0.0,0.0,96,0.00,,OVC,0.00,WeatherDisplay:10.37,2013-05-12 11:12:00,
2013-05-12 07:17:00,74.4,73.2,29.96,SE,142,0.0,0.0,96,0.00,,OVC,0.00,WeatherDisplay:10.37,2013-05-12 11:17:00,
2013-05-12 07:22:00,74.6,73.4,29.96,SE,143,0.0,0.0,96,0.00,,OVC,0.00,WeatherDisplay:10.37,2013-05-12 11:22:00,
2013-05-12 07:27:00,74.7,73.5,29.96,SE,142,0.0,0.0,96,0.00,,OVC,0.00,WeatherDisplay:10.37,2013-05-12 11:27:00,
2013-05-12 07:32:00,74.9,73.7,29.96,SE,143,0.0,0.0,96,0.00,,OVC,0.00,WeatherDisplay:10.37,2013-05-12 11:32:00,
2013-05-12 07:37:00,74.9,73.4,29.96,SE,144,0.0,0.0,95,0.00,,OVC,0.00,WeatherDisplay:10.37,2013-05-12 11:37:00,
2013-05-12 07:42:00,75.1,73.6,29.96,SE,144,0.0,0.0,95,0.00,,OVC,0.00,WeatherDisplay:10.37,2013-05-12 11:42:00,
2013-05-12 07:47:00,75.3,73.8,29.96,SE,145,0.0,0.0,95,0.00,,OVC,0.00,WeatherDisplay:10.37,2013-05-12 11:47:00,
2013-05-12 07:52:00,75.4,73.9,29.96,SE,146,0.0,0.0,95,0.00,,OVC,0.00,WeatherDisplay:10.37,2013-05-12 11:52:00,
2013-05-12 07:57:00,75.4,73.9,29.96,SSE,152,0.0,0.0,95,0.00,,OVC,0.00,WeatherDisplay:10.37,2013-05-12 11:57:00,
2013-05-12 08:02:00,75.8,74.3,29.97,SSE,153,0.0,0.0,95,0.00,,OVC,0.00,WeatherDisplay:10.37,2013-05-12 12:02:00,
2013-05-12 08:07:00,76.0,74.5,29.97,South,175,0.0,0.0,95,0.00,,OVC,0.00,WeatherDisplay:10.37,2013-05-12 12:07:00,
2013-05-12 08:12:00,76.0,74.1,29.97,South,185,0.0,0.0,94,0.00,,OVC,0.00,WeatherDisplay:10.37,2013-05-12 12:12:00,
2013-05-12 08:17:00,76.1,74.2,29.98,South,184,0.0,0.0,94,0.00,,OVC,0.00,WeatherDisplay:10.37,2013-05-12 12:17:00,
2013-05-12 08:22:00,76.3,74.1,29.98,South,185,0.0,0.0,93,0.00,,OVC,0.00,WeatherDisplay:10.37,2013-05-12 12:22:00,
2013-05-12 08:27:00,76.3,73.8,29.98,South,189,0.0,0.0,92,0.00,,OVC,0.00,WeatherDisplay:10.37,2013-05-12 12:27:00,
2013-05-12 08:32:00,76.7,74.2,29.99,South,188,0.0,0.0,92,0.00,,OVC,0.00,WeatherDisplay:10.37,2013-05-12 12:32:00,
2013-05-12 08:37:00,77.0,74.2,29.99,South,178,0.0,0.0,91,0.00,,OVC,0.00,WeatherDisplay:10.37,2013-05-12 12:37:00,
2013-05-12 08:42:00,77.0,73.5,29.99,South,182,0.0,0.0,89,0.00,,OVC,0.00,WeatherDisplay:10.37,2013-05-12 12:42:00,
2013-05-12 08:47:00,77.4,73.2,29.99,SSE,168,0.0,0.0,87,0.00,,OVC,0.00,WeatherDisplay:10.37,2013-05-12 12:47:00,
2013-05-12 08:52:00,77.7,72.8,29.99,South,173,0.0,0.0,85,0.00,,OVC,0.00,WeatherDisplay:10.37,2013-05-12 12:52:00,
2013-05-12 08:57:00,78.1,72.5,29.99,SW,218,0.0,0.0,83,0.00,,OVC,0.00,WeatherDisplay:10.37,2013-05-12 12:57:00,
2013-05-12 09:02:00,78.5,72.5,29.99,SSW,196,0.0,0.0,82,0.00,,OVC,0.00,WeatherDisplay:10.37,2013-05-12 13:02:00,
2013-05-12 09:07:00,78.8,72.5,29.99,SSE,148,0.0,0.0,81,0.00,,OVC,0.00,WeatherDisplay:10.37,2013-05-12 13:07:00,
2013-05-12 09:12:00,79.4,72.7,29.99,SSW,203,0.0,0.0,80,0.00,,OVC,0.00,WeatherDisplay:10.37,2013-05-12 13:12:00,
2013-05-12 09:17:00,79.8,73.1,29.99,SSE,157,0.0,0.0,80,0.00,,OVC,0.00,WeatherDisplay:10.37,2013-05-12 13:17:00,
2013-05-12 09:22:00,79.9,72.0,29.99,SSW,207,0.0,0.0,77,0.00,,OVC,0.00,WeatherDisplay:10.37,2013-05-12 13:22:00,
2013-05-12 09:27:00,79.8,71.6,29.99,SSW,194,2.3,2.3,76,0.00,,OVC,0.00,WeatherDisplay:10.37,2013-05-12 13:27:00,
2013-05-12 09:32:00,79.6,71.4,29.99,SSW,198,1.2,1.2,76,0.00,,OVC,0.00,WeatherDisplay:10.37,2013-05-12 13:32:00,
2013-05-12 09:38:00,79.9,71.3,29.99,SSW,204,6.0,6.0,75,0.00,,OVC,0.00,WeatherDisplay:10.37,2013-05-12 13:38:00,
2013-05-12 09:43:00,80.3,72.0,29.99,SSE,161,0.0,0.0,76,0.00,,OVC,0.00,WeatherDisplay:10.37,2013-05-12 13:43:00,
2013-05-12 09:48:00,80.7,71.6,29.99,SSW,197,10.4,10.4,74,0.00,,OVC,0.00,WeatherDisplay:10.37,2013-05-12 13:48:00,
2013-05-12 09:53:00,81.1,72.4,29.99,South,187,2.3,2.3,75,0.00,,OVC,0.00,WeatherDisplay:10.37,2013-05-12 13:53:00,
2013-05-12 09:58:00,81.4,71.5,29.99,SSW,202,0.0,0.0,72,0.00,,OVC,0.00,WeatherDisplay:10.37,2013-05-12 13:58:00,
2013-05-12 10:03:00,81.4,71.1,29.99,SSE,161,1.2,0.0,71,0.00,,OVC,0.00,WeatherDisplay:10.37,2013-05-12 14:03:00,
2013-05-12 10:08:00,81.4,70.2,29.99,South,184,0.0,0.0,69,0.00,,OVC,0.00,WeatherDisplay:10.37,2013-05-12 14:08:00,
2013-05-12 10:13:00,81.6,70.4,29.99,South,171,0.0,0.0,69,0.00,,OVC,0.00,WeatherDisplay:10.37,2013-05-12 14:13:00,
2013-05-12 10:18:00,81.8,70.6,29.99,SSW,193,0.0,0.0,69,0.00,,OVC,0.00,WeatherDisplay:10.37,2013-05-12 14:18:00,
2013-05-12 10:23:00,81.6,69.6,29.99,SSW,194,3.5,3.5,67,0.00,,OVC,0.00,WeatherDisplay:10.37,2013-05-12 14:23:00,
2013-05-12 10:28:00,82.2,70.1,29.99,South,188,2.3,2.3,67,0.00,,OVC,0.00,WeatherDisplay:10.37,2013-05-12 14:28:00,
2013-05-12 10:33:00,82.6,70.5,30.00,SW,221,3.5,0.0,67,0.00,,OVC,0.00,WeatherDisplay:10.37,2013-05-12 14:33:00,
2013-05-12 10:38:00,82.8,70.7,30.00,SSW,193,0.0,0.0,67,0.00,,OVC,0.00,WeatherDisplay:10.37,2013-05-12 14:38:00,
2013-05-12 10:43:00,83.0,70.5,30.00,WSW,240,0.0,0.0,66,0.00,,OVC,0.00,WeatherDisplay:10.37,2013-05-12 14:43:00,
2013-05-12 10:48:00,83.4,70.8,29.99,SSE,165,0.0,0.0,66,0.00,,OVC,0.00,WeatherDisplay:10.37,2013-05-12 14:48:00,
2013-05-12 10:53:00,83.6,71.5,29.99,SSW,197,0.0,0.0,67,0.00,,OVC,0.00,WeatherDisplay:10.37,2013-05-12 14:53:00,
2013-05-12 10:58:00,84.0,71.9,29.99,SSW,213,0.0,0.0,67,0.00,,OVC,0.00,WeatherDisplay:10.37,2013-05-12 14:58:00,
2013-05-12 11:03:00,84.0,71.4,29.99,SW,217,0.0,0.0,66,0.00,,OVC,0.00,WeatherDisplay:10.37,2013-05-12 15:03:00,
2013-05-12 11:08:00,83.4,70.8,29.99,SSW,205,0.0,0.0,66,0.00,,OVC,0.00,WeatherDisplay:10.37,2013-05-12 15:08:00,
2013-05-12 11:13:00,83.6,71.5,29.99,SW,233,3.5,3.5,67,0.00,,OVC,0.00,WeatherDisplay:10.37,2013-05-12 15:13:00,
2013-05-12 11:18:00,84.3,71.2,29.99,WSW,253,0.0,0.0,65,0.00,,OVC,0.00,WeatherDisplay:10.37,2013-05-12 15:18:00,
2013-05-12 11:23:00,84.7,71.2,29.99,SSW,194,0.0,0.0,64,0.00,,OVC,0.00,WeatherDisplay:10.37,2013-05-12 15:23:00,
2013-05-12 11:28:00,85.1,72.0,29.99,WSW,237,0.0,0.0,65,0.00,,OVC,0.00,WeatherDisplay:10.37,2013-05-12 15:28:00,
2013-05-12 11:33:00,85.3,71.7,29.99,West,267,0.0,0.0,64,0.00,,OVC,0.00,WeatherDisplay:10.37,2013-05-12 15:33:00,
2013-05-12 11:38:00,85.3,71.7,29.99,WSW,255,0.0,0.0,64,0.00,,OVC,0.00,WeatherDisplay:10.37,2013-05-12 15:38:00,
2013-05-12 11:43:00,85.3,71.7,29.99,WSW,246,2.3,2.3,64,0.00,,OVC,0.00,WeatherDisplay:10.37,2013-05-12 15:43:00,
2013-05-12 11:48:00,85.1,70.6,30.00,South,188,0.0,0.0,62,0.00,,OVC,0.00,WeatherDisplay:10.37,2013-05-12 15:48:00,
2013-05-12 11:53:00,85.3,69.3,30.00,South,187,0.0,0.0,59,0.00,,OVC,0.00,WeatherDisplay:10.37,2013-05-12 15:53:00,
2013-05-12 11:58:00,85.5,71.0,30.00,WSW,242,0.0,0.7,62,0.00,,OVC,0.00,WeatherDisplay:10.37,2013-05-12 15:58:00,
2013-05-12 12:03:00,85.3,70.3,30.00,WSW,242,0.0,0.0,61,0.00,,OVC,0.00,WeatherDisplay:10.37,2013-05-12 16:03:00,
2013-05-12 12:08:00,85.9,70.4,30.00,WSW,248,0.0,0.0,60,0.00,,OVC,0.00,WeatherDisplay:10.37,2013-05-12 16:08:00,
2013-05-12 12:13:00,86.3,70.8,30.00,SW,227,0.0,0.0,60,0.00,,OVC,0.00,WeatherDisplay:10.37,2013-05-12 16:13:00,
2013-05-12 12:18:00,86.7,71.2,29.99,West,260,0.0,0.0,60,0.00,,OVC,0.00,WeatherDisplay:10.37,2013-05-12 16:18:00,
2013-05-12 12:23:00,87.4,71.3,29.99,South,180,0.0,0.0,59,0.00,,OVC,0.00,WeatherDisplay:10.37,2013-05-12 16:23:00,
2013-05-12 12:28:00,87.8,71.7,29.99,West,269,0.0,0.0,59,0.00,,OVC,0.00,WeatherDisplay:10.37,2013-05-12 16:28:00,
2013-05-12 12:33:00,88.0,71.9,29.99,WSW,255,0.0,0.0,59,0.00,,OVC,0.00,WeatherDisplay:10.37,2013-05-12 16:33:00,
2013-05-12 12:38:00,88.0,71.4,29.99,WNW,288,0.0,0.0,58,0.00,,OVC,0.00,WeatherDisplay:10.37,2013-05-12 16:38:00,
2013-05-12 12:43:00,88.0,71.4,29.99,WSW,237,0.0,0.0,58,0.00,,OVC,0.00,WeatherDisplay:10.37,2013-05-12 16:43:00,
2013-05-12 12:48:00,87.6,70.5,29.98,SW,223,0.0,0.0,57,0.00,,OVC,0.00,WeatherDisplay:10.37,2013-05-12 16:48:00,
2013-05-12 12:53:00,87.6,71.0,29.98,SW,223,0.0,0.0,58,0.00,,OVC,0.00,WeatherDisplay:10.37,2013-05-12 16:53:00,
2013-05-12 12:58:00,88.2,70.0,29.98,South,169,0.0,0.0,55,0.00,,OVC,0.00,WeatherDisplay:10.37,2013-05-12 16:58:00,
2013-05-12 13:03:00,88.6,70.9,29.98,WSW,252,0.0,0.0,56,0.00,,OVC,0.00,WeatherDisplay:10.37,2013-05-12 17:03:00,
2013-05-12 13:08:00,88.8,70.0,29.98,SW,232,0.0,0.0,54,0.00,,OVC,0.00,WeatherDisplay:10.37,2013-05-12 17:08:00,
2013-05-12 13:13:00,88.6,70.4,29.98,WSW,238,0.0,0.0,55,0.00,,OVC,0.00,WeatherDisplay:10.37,2013-05-12 17:13:00,
2013-05-12 13:18:00,88.6,69.3,29.97,WNW,293,0.0,0.0,53,0.00,,OVC,0.00,WeatherDisplay:10.37,2013-05-12 17:18:00,
2013-05-12 13:23:00,88.4,69.6,29.97,WSW,253,0.0,0.0,54,0.00,,OVC,0.00,WeatherDisplay:10.37,2013-05-12 17:23:00,
2013-05-12 13:28:00,88.0,69.3,29.97,WSW,244,0.0,0.0,54,0.00,,OVC,0.00,WeatherDisplay:10.37,2013-05-12 17:28:00,
2013-05-12 13:33:00,88.6,70.4,29.96,WSW,245,0.0,0.0,55,0.00,,OVC,0.00,WeatherDisplay:10.37,2013-05-12 17:33:00,
2013-05-12 13:38:00,88.8,67.8,29.96,WSW,242,0.0,0.0,50,0.00,,OVC,0.00,WeatherDisplay:10.37,2013-05-12 17:38:00,
2013-05-12 13:43:00,89.0,67.9,29.96,SW,214,0.0,0.0,50,0.00,,OVC,0.00,WeatherDisplay:10.37,2013-05-12 17:43:00,
2013-05-12 13:48:00,89.3,68.8,29.96,SW,214,0.0,0.0,51,0.00,,OVC,0.00,WeatherDisplay:10.37,2013-05-12 17:48:00,
2013-05-12 13:53:00,89.3,69.4,29.96,SW,215,0.0,0.0,52,0.00,,OVC,0.00,WeatherDisplay:10.37,2013-05-12 17:53:00,
2013-05-12 13:58:00,89.7,68.0,29.96,West,271,0.0,0.0,49,0.00,,OVC,0.00,WeatherDisplay:10.37,2013-05-12 17:58:00,
2013-05-12 14:03:00,90.5,69.3,29.95,West,271,0.0,0.0,50,0.00,,OVC,0.00,WeatherDisplay:10.37,2013-05-12 18:03:00,
2013-05-12 14:08:00,91.0,68.6,29.95,WNW,300,0.0,0.0,48,0.00,,OVC,0.00,WeatherDisplay:10.37,2013-05-12 18:08:00,
2013-05-12 14:13:00,90.7,70.1,29.95,WSW,255,8.1,0.0,51,0.00,,OVC,0.00,WeatherDisplay:10.37,2013-05-12 18:13:00,
2013-05-12 14:18:00,89.5,70.7,29.94,WSW,242,0.0,0.0,54,0.00,,OVC,0.00,WeatherDisplay:10.37,2013-05-12 18:18:00,
2013-05-12 14:23:00,89.3,72.1,29.94,SE,134,1.2,0.0,57,0.00,,OVC,0.00,WeatherDisplay:10.37,2013-05-12 18:23:00,
2013-05-12 14:28:00,88.6,71.4,29.94,SE,141,0.0,0.0,57,0.00,,OVC,0.00,WeatherDisplay:10.37,2013-05-12 18:28:00,
2013-05-12 14:33:00,88.0,71.4,29.93,ESE,118,0.0,0.2,58,0.00,,OVC,0.00,WeatherDisplay:10.37,2013-05-12 18:33:00,
2013-05-12 14:38:00,87.4,70.8,29.93,SE,129,15.0,15.0,58,0.00,,OVC,0.00,WeatherDisplay:10.37,2013-05-12 18:38:00,
2013-05-12 14:43:00,87.0,70.9,29.93,SSE,155,15.0,15.0,59,0.00,,OVC,0.00,WeatherDisplay:10.37,2013-05-12 18:43:00,
2013-05-12 14:48:00,86.3,71.7,29.93,SE,125,3.5,3.5,62,0.00,,OVC,0.00,WeatherDisplay:10.37,2013-05-12 18:48:00,
2013-05-12 14:53:00,85.9,71.4,29.93,SE,132,1.2,0.0,62,0.00,,OVC,0.00,WeatherDisplay:10.37,2013-05-12 18:53:00,
2013-05-12 14:58:00,85.7,71.7,29.93,SE,142,3.5,0.0,63,0.00,,OVC,0.00,WeatherDisplay:10.37,2013-05-12 18:58:00,
2013-05-12 15:03:00,85.5,71.5,29.93,South,174,3.5,0.0,63,0.00,,OVC,0.00,WeatherDisplay:10.37,2013-05-12 19:03:00,
2013-05-12 15:08:00,85.3,71.3,29.93,SE,140,1.2,1.2,63,0.00,,OVC,0.00,WeatherDisplay:10.37,2013-05-12 19:08:00,
2013-05-12 15:13:00,85.3,71.7,29.93,SE,133,3.5,3.5,64,0.00,,OVC,0.00,WeatherDisplay:10.37,2013-05-12 19:13:00,
2013-05-12 15:18:00,85.3,71.3,29.92,SE,144,0.0,0.0,63,0.00,,OVC,0.00,WeatherDisplay:10.37,2013-05-12 19:18:00,
2013-05-12 15:24:00,85.9,71.4,29.92,ESE,119,0.0,0.9,62,0.00,,OVC,0.00,WeatherDisplay:10.37,2013-05-12 19:24:00,
2013-05-12 15:29:00,86.3,70.3,29.92,SSE,149,9.2,0.0,59,0.00,,OVC,0.00,WeatherDisplay:10.37,2013-05-12 19:29:00,
2013-05-12 15:34:00,86.5,71.0,29.93,SE,136,11.5,11.5,60,0.00,,OVC,0.00,WeatherDisplay:10.37,2013-05-12 19:34:00,
2013-05-12 15:39:00,85.9,70.4,29.93,SE,136,0.0,0.0,60,0.00,,OVC,0.00,WeatherDisplay:10.37,2013-05-12 19:39:00,
2013-05-12 15:44:00,85.3,70.8,29.93,ESE,113,0.0,0.0,62,0.00,,OVC,0.00,WeatherDisplay:10.37,2013-05-12 19:44:00,
2013-05-12 15:49:00,84.7,69.8,29.92,East,82,0.0,0.0,61,0.00,,OVC,0.00,WeatherDisplay:10.37,2013-05-12 19:49:00,
2013-05-12 15:54:00,84.3,69.9,29.92,NE,55,4.6,4.6,62,0.00,,OVC,0.00,WeatherDisplay:10.37,2013-05-12 19:54:00,
2013-05-12 15:59:00,83.8,69.9,29.92,SE,130,10.4,10.4,63,0.00,,OVC,0.00,WeatherDisplay:10.37,2013-05-12 19:59:00,
2013-05-12 16:04:00,83.4,69.0,29.92,SSE,152,11.5,11.5,62,0.00,,OVC,0.00,WeatherDisplay:10.37,2013-05-12 20:04:00,
2013-05-12 16:09:00,83.0,69.1,29.92,SE,136,11.5,11.5,63,0.00,,OVC,0.00,WeatherDisplay:10.37,2013-05-12 20:09:00,
2013-05-12 16:14:00,82.8,68.9,29.92,SSE,160,11.5,11.5,63,0.00,,OVC,0.00,WeatherDisplay:10.37,2013-05-12 20:14:00,
2013-05-12 16:19:00,82.8,68.9,29.92,SE,138,29.9,29.9,63,0.00,,OVC,0.00,WeatherDisplay:10.37,2013-05-12 20:19:00,
2013-05-12 16:24:00,82.6,70.1,29.92,ESE,114,17.3,17.3,66,0.00,,OVC,0.00,WeatherDisplay:10.37,2013-05-12 20:24:00,
2013-05-12 16:29:00,82.0,70.4,29.93,SE,146,26.5,26.5,68,0.00,,OVC,0.00,WeatherDisplay:10.37,2013-05-12 20:29:00,
2013-05-12 16:34:00,81.1,70.4,29.93,SSE,159,21.9,21.9,70,0.00,,OVC,0.00,WeatherDisplay:10.37,2013-05-12 20:34:00,
2013-05-12 16:39:00,80.9,70.2,29.93,SE,142,24.2,24.2,70,0.00,,OVC,0.00,WeatherDisplay:10.37,2013-05-12 20:39:00,
2013-05-12 16:44:00,81.1,70.0,29.93,South,185,4.6,0.0,69,0.00,,OVC,0.00,WeatherDisplay:10.37,2013-05-12 20:44:00,
2013-05-12 16:49:00,81.1,69.1,29.93,South,174,5.8,5.8,67,0.00,,OVC,0.00,WeatherDisplay:10.37,2013-05-12 20:49:00,
2013-05-12 16:54:00,80.7,68.7,29.93,SE,143,6.9,6.9,67,0.00,,OVC,0.00,WeatherDisplay:10.37,2013-05-12 20:54:00,
2013-05-12 16:59:00,80.9,69.3,29.93,SE,133,3.5,0.0,68,0.00,,OVC,0.00,WeatherDisplay:10.37,2013-05-12 20:59:00,
2013-05-12 17:04:00,81.1,70.0,29.93,SE,144,3.5,0.0,69,0.00,,OVC,0.00,WeatherDisplay:10.37,2013-05-12 21:04:00,
2013-05-12 17:09:00,81.1,70.0,29.93,SSW,192,0.0,0.0,69,0.00,,OVC,0.00,WeatherDisplay:10.37,2013-05-12 21:09:00,
2013-05-12 17:14:00,81.1,70.4,29.93,SSW,201,0.0,0.0,70,0.00,,OVC,0.00,WeatherDisplay:10.37,2013-05-12 21:14:00,
2013-05-12 17:19:00,81.2,70.1,29.93,SSW,213,0.0,0.0,69,0.00,,OVC,0.00,WeatherDisplay:10.37,2013-05-12 21:19:00,
2013-05-12 17:24:00,81.8,70.6,29.93,SSW,200,0.0,0.0,69,0.00,,OVC,0.00,WeatherDisplay:10.37,2013-05-12 21:24:00,
2013-05-12 17:29:00,82.4,70.8,29.93,SE,143,0.0,0.0,68,0.00,,OVC,0.00,WeatherDisplay:10.37,2013-05-12 21:29:00,
2013-05-12 17:34:00,82.6,70.1,29.93,SSW,194,0.0,0.0,66,0.00,,OVC,0.00,WeatherDisplay:10.37,2013-05-12 21:34:00,
2013-05-12 17:39:00,83.0,70.9,29.93,South,186,0.0,0.0,67,0.00,,OVC,0.00,WeatherDisplay:10.37,2013-05-12 21:39:00,
2013-05-12 17:44:00,82.8,70.7,29.93,SW,227,0.0,0.0,67,0.00,,OVC,0.00,WeatherDisplay:10.37,2013-05-12 21:44:00,
2013-05-12 17:49:00,82.6,71.0,29.93,South,190,0.0,0.0,68,0.00,,OVC,0.00,WeatherDisplay:10.37,2013-05-12 21:49:00,
2013-05-12 17:54:00,82.6,71.4,29.93,SW,225,0.0,0.9,69,0.00,,OVC,0.00,WeatherDisplay:10.37,2013-05-12 21:54:00,
2013-05-12 17:59:00,82.8,70.7,29.94,SW,219,0.0,0.0,67,0.00,,OVC,0.00,WeatherDisplay:10.37,2013-05-12 21:59:00,
2013-05-12 18:04:00,82.6,71.0,29.94,WSW,243,0.0,0.0,68,0.00,,OVC,0.00,WeatherDisplay:10.37,2013-05-12 22:04:00,
2013-05-12 18:09:00,82.6,71.4,29.94,SW,228,10.4,10.4,69,0.00,,OVC,0.00,WeatherDisplay:10.37,2013-05-12 22:09:00,
2013-05-12 18:14:00,82.4,71.2,29.95,SW,219,21.9,21.9,69,0.00,,OVC,0.00,WeatherDisplay:10.37,2013-05-12 22:14:00,
2013-05-12 18:19:00,81.8,70.2,29.95,SW,220,8.0,8.0,68,0.00,,OVC,0.00,WeatherDisplay:10.37,2013-05-12 22:19:00,
2013-05-12 18:24:00,80.9,71.0,29.95,SW,230,2.3,0.0,72,0.02,RA,OVC,0.02,WeatherDisplay:10.37,2013-05-12 22:24:00,
2013-05-12 18:29:00,79.0,71.9,29.95,South,177,9.2,9.2,79,0.08,RA,OVC,0.08,WeatherDisplay:10.37,2013-05-12 22:29:00,
2013-05-12 18:34:00,78.1,72.2,29.95,SSW,202,11.5,11.5,82,0.08,RA,OVC,0.08,WeatherDisplay:10.37,2013-05-12 22:34:00,
2013-05-12 18:39:00,77.7,72.1,29.95,SSW,202,0.0,0.0,83,0.08,,OVC,0.08,WeatherDisplay:10.37,2013-05-12 22:39:00,
2013-05-12 18:44:00,77.6,72.4,29.96,SSW,202,0.0,0.0,84,0.08,,OVC,0.08,WeatherDisplay:10.37,2013-05-12 22:44:00,
2013-05-12 18:49:00,77.2,72.3,29.96,NW,317,19.0,19.0,85,0.08,,OVC,0.08,WeatherDisplay:10.37,2013-05-12 22:49:00,
2013-05-12 18:54:00,75.8,69.6,29.96,North,350,15.0,15.0,81,0.08,,OVC,0.08,WeatherDisplay:10.37,2013-05-12 22:54:00,
2013-05-12 18:59:00,75.1,68.5,29.98,NNW,341,23.0,23.0,80,0.08,,OVC,0.08,WeatherDisplay:10.37,2013-05-12 22:59:00,
2013-05-12 19:04:00,74.4,68.2,29.98,NE,40,23.0,23.0,81,0.08,,OVC,0.08,WeatherDisplay:10.37,2013-05-12 23:04:00,
2013-05-12 19:09:00,74.0,68.2,29.98,North,5,8.1,0.0,82,0.10,RA,OVC,0.12,WeatherDisplay:10.37,2013-05-12 23:09:00,
2013-05-12 19:14:00,73.5,68.4,29.99,NNW,344,9.2,9.2,84,0.18,RA,OVC,0.19,WeatherDisplay:10.37,2013-05-12 23:14:00,
2013-05-12 19:19:00,73.0,68.6,29.99,NNW,341,9.0,9.0,86,0.23,RA,OVC,0.24,WeatherDisplay:10.37,2013-05-12 23:19:00,
2013-05-12 19:24:00,72.5,68.7,29.99,North,349,0.0,0.0,88,0.35,RA,OVC,0.38,WeatherDisplay:10.37,2013-05-12 23:24:00,
2013-05-12 19:29:00,72.3,68.9,29.99,North,349,0.0,0.0,89,0.37,RA,OVC,0.46,WeatherDisplay:10.37,2013-05-12 23:29:00,
2013-05-12 19:34:00,72.3,69.2,29.99,WNW,296,0.0,0.0,90,0.46,RA,OVC,0.56,WeatherDisplay:10.37,2013-05-12 23:34:00,
2013-05-12 19:39:00,72.3,69.5,29.99,West,281,0.0,0.0,91,0.55,RA,OVC,0.63,WeatherDisplay:10.37,2013-05-12 23:39:00,
2013-05-12 19:44:00,72.5,69.7,29.99,West,271,0.0,0.0,91,0.58,RA,OVC,0.66,WeatherDisplay:10.37,2013-05-12 23:44:00,
2013-05-12 19:49:00,72.5,70.0,29.99,West,271,0.0,0.0,92,0.60,RA,OVC,0.69,WeatherDisplay:10.37,2013-05-12 23:49:00,
2013-05-12 19:54:00,72.3,69.8,29.99,SSW,212,3.5,0.0,92,0.63,RA,OVC,0.73,WeatherDisplay:10.37,2013-05-12 23:54:00,
2013-05-12 19:59:00,72.1,69.6,29.99,South,186,0.0,0.0,92,0.72,RA,OVC,0.80,WeatherDisplay:10.37,2013-05-12 23:59:00,
2013-05-12 20:04:00,72.3,70.2,29.99,South,185,0.0,0.0,93,0.72,RA,OVC,0.80,WeatherDisplay:10.37,2013-05-13 00:04:00,
2013-05-12 20:09:00,72.1,70.0,29.99,South,185,0.0,0.0,93,0.70,,OVC,0.80,WeatherDisplay:10.37,2013-05-13 00:09:00,
2013-05-12 20:14:00,72.3,70.2,29.99,South,185,0.0,0.0,93,0.62,,OVC,0.80,WeatherDisplay:10.37,2013-05-13 00:14:00,
2013-05-12 20:19:00,72.3,70.2,29.99,South,185,0.0,0.0,93,0.57,,OVC,0.80,WeatherDisplay:10.37,2013-05-13 00:19:00,
2013-05-12 20:24:00,72.3,70.2,29.99,South,185,0.0,0.0,93,0.43,,OVC,0.80,WeatherDisplay:10.37,2013-05-13 00:24:00,
2013-05-12 20:29:00,72.3,70.5,30.00,South,185,0.0,0.0,94,0.35,,OVC,0.80,WeatherDisplay:10.37,2013-05-13 00:29:00,
2013-05-12 20:34:00,72.5,70.7,30.00,South,185,0.0,0.0,94,0.26,,OVC,0.80,WeatherDisplay:10.37,2013-05-13 00:34:00,
2013-05-12 20:39:00,72.5,70.7,30.00,South,185,0.0,0.0,94,0.17,,OVC,0.80,WeatherDisplay:10.37,2013-05-13 00:39:00,
2013-05-12 20:44:00,72.5,70.7,30.01,South,185,0.0,0.0,94,0.14,,OVC,0.80,WeatherDisplay:10.37,2013-05-13 00:44:00,
2013-05-12 20:49:00,72.5,70.7,30.01,South,185,0.0,0.0,94,0.12,,OVC,0.80,WeatherDisplay:10.37,2013-05-13 00:49:00,
2013-05-12 20:54:00,72.7,70.9,30.01,South,185,0.0,0.0,94,0.09,,OVC,0.80,WeatherDisplay:10.37,2013-05-13 00:54:00,
2013-05-12 20:59:00,72.7,70.9,30.01,South,185,0.0,0.0,94,0.00,,OVC,0.80,WeatherDisplay:10.37,2013-05-13 00:59:00,
2013-05-12 21:04:00,72.7,70.9,30.01,South,185,0.0,0.0,94,0.00,CLR,OVC,0.80,WeatherDisplay:10.37,2013-05-13 01:04:00,
2013-05-12 21:10:00,72.7,70.9,30.01,South,185,0.0,0.0,94,0.00,CLR,OVC,0.80,WeatherDisplay:10.37,2013-05-13 01:10:00,
2013-05-12 21:15:00,72.7,70.9,30.00,South,185,0.0,0.0,94,0.00,CLR,OVC,0.80,WeatherDisplay:10.37,2013-05-13 01:15:00,
2013-05-12 21:20:00,72.7,70.9,30.00,South,185,0.0,0.0,94,0.00,CLR,OVC,0.80,WeatherDisplay:10.37,2013-05-13 01:20:00,
2013-05-12 21:25:00,72.5,70.7,30.00,South,186,0.0,0.0,94,0.00,CLR,OVC,0.80,WeatherDisplay:10.37,2013-05-13 01:25:00,
2013-05-12 21:30:00,72.5,70.7,30.00,South,181,0.0,0.0,94,0.00,CLR,OVC,0.80,WeatherDisplay:10.37,2013-05-13 01:30:00,
2013-05-12 21:35:00,72.5,70.7,30.00,South,184,0.0,0.0,94,0.00,CLR,OVC,0.80,WeatherDisplay:10.37,2013-05-13 01:35:00,
2013-05-12 21:40:00,72.5,70.7,30.00,South,184,0.0,0.0,94,0.00,CLR,OVC,0.80,WeatherDisplay:10.37,2013-05-13 01:40:00,
2013-05-12 21:45:00,72.5,71.0,30.00,South,184,0.0,0.0,95,0.00,CLR,OVC,0.80,WeatherDisplay:10.37,2013-05-13 01:45:00,
2013-05-12 21:50:00,72.5,71.0,30.00,South,184,0.0,0.0,95,0.00,CLR,OVC,0.80,WeatherDisplay:10.37,2013-05-13 01:50:00,
2013-05-12 21:55:00,72.7,71.2,30.00,South,184,0.0,0.0,95,0.00,CLR,OVC,0.80,WeatherDisplay:10.37,2013-05-13 01:55:00,
2013-05-12 22:00:00,72.7,71.2,30.01,South,184,0.0,0.0,95,0.00,CLR,OVC,0.80,WeatherDisplay:10.37,2013-05-13 02:00:00,
2013-05-12 22:05:00,72.5,71.0,30.01,South,184,0.0,0.0,95,0.00,,OVC,0.80,WeatherDisplay:10.37,2013-05-13 02:05:00,
2013-05-12 22:10:00,72.5,71.0,30.01,South,184,0.0,0.0,95,0.00,,OVC,0.80,WeatherDisplay:10.37,2013-05-13 02:10:00,
2013-05-12 22:15:00,72.5,71.0,30.01,South,184,0.0,0.0,95,0.00,,OVC,0.80,WeatherDisplay:10.37,2013-05-13 02:15:00,
2013-05-12 22:20:00,72.5,71.0,30.01,South,184,0.0,0.0,95,0.00,,OVC,0.80,WeatherDisplay:10.37,2013-05-13 02:20:00,
2013-05-12 22:25:00,72.5,71.0,30.01,South,184,0.0,0.0,95,0.00,,OVC,0.80,WeatherDisplay:10.37,2013-05-13 02:25:00,
2013-05-12 22:30:00,72.5,71.0,30.01,South,184,0.0,0.0,95,0.00,,OVC,0.80,WeatherDisplay:10.37,2013-05-13 02:30:00,
2013-05-12 22:35:00,72.5,71.0,30.01,South,184,0.0,0.0,95,0.00,,OVC,0.80,WeatherDisplay:10.37,2013-05-13 02:35:00,
2013-05-12 22:40:00,72.3,70.8,30.01,South,184,0.0,0.0,95,0.00,,OVC,0.80,WeatherDisplay:10.37,2013-05-13 02:40:00,
2013-05-12 22:45:00,72.3,70.8,30.01,South,184,0.0,0.0,95,0.00,,OVC,0.80,WeatherDisplay:10.37,2013-05-13 02:45:00,
2013-05-12 22:50:00,72.1,70.6,30.01,South,184,0.0,0.0,95,0.00,,OVC,0.80,WeatherDisplay:10.37,2013-05-13 02:50:00,
2013-05-12 22:55:00,72.1,70.6,30.01,South,184,0.0,0.0,95,0.00,,OVC,0.80,WeatherDisplay:10.37,2013-05-13 02:55:00,
2013-05-12 23:00:00,72.1,70.6,30.02,South,184,0.0,0.0,95,0.00,,OVC,0.80,WeatherDisplay:10.37,2013-05-13 03:00:00,
2013-05-12 23:05:00,72.0,70.5,30.02,South,184,0.0,0.0,95,0.00,,OVC,0.80,WeatherDisplay:10.37,2013-05-13 03:05:00,
2013-05-12 23:10:00,72.0,70.5,30.02,South,184,0.0,0.0,95,0.00,,OVC,0.80,WeatherDisplay:10.37,2013-05-13 03:10:00,
2013-05-12 23:15:00,72.0,70.5,30.02,South,184,0.0,0.0,95,0.00,,OVC,0.80,WeatherDisplay:10.37,2013-05-13 03:15:00,
2013-05-12 23:20:00,72.0,70.5,30.02,South,184,0.0,0.0,95,0.00,,OVC,0.80,WeatherDisplay:10.37,2013-05-13 03:20:00,
2013-05-12 23:25:00,72.1,70.6,30.02,South,184,0.0,0.0,95,0.00,,OVC,0.80,WeatherDisplay:10.37,2013-05-13 03:25:00,
2013-05-12 23:30:00,72.1,70.6,30.02,South,184,0.0,0.0,95,0.00,,OVC,0.80,WeatherDisplay:10.37,2013-05-13 03:30:00,
2013-05-12 23:35:00,72.1,70.6,30.02,South,184,0.0,0.0,95,0.00,,OVC,0.80,WeatherDisplay:10.37,2013-05-13 03:35:00,
2013-05-12 23:40:00,72.1,70.6,30.02,South,184,0.0,0.0,95,0.00,,OVC,0.80,WeatherDisplay:10.37,2013-05-13 03:40:00,
2013-05-12 23:45:00,72.1,70.6,30.01,South,184,0.0,0.0,95,0.00,,OVC,0.80,WeatherDisplay:10.37,2013-05-13 03:45:00,
2013-05-12 23:50:00,72.1,70.6,30.01,South,184,0.0,0.0,95,0.00,,OVC,0.80,WeatherDisplay:10.37,2013-05-13 03:50:00,
2013-05-12 23:55:00,72.1,70.6,30.01,South,184,0.0,0.0,95,0.00,,OVC,0.80,WeatherDisplay:10.37,2013-05-13 03:55:00,